�������l�o���
Date,Time,MP-1(��Sv/h),MP-2(��Sv/h),MP-3(��Sv/h),MP-4(��Sv/h),MP-5(��Sv/h),MP-6(��Sv/h),MP-7(��Sv/h),����,����(m/s),���J
2018/05/14,00:00,0.302,0.192,0.308,0.298,0.295,0.157,0.096,�k�k��,6.1,��
2018/05/14,00:10,0.303,0.191,0.307,0.295,0.294,0.156,0.096,�k,8.3,��
2018/05/14,00:20,0.302,0.192,0.309,0.295,0.296,0.156,0.096,�k�k��,4.8,��
2018/05/14,00:30,0.303,0.191,0.309,0.295,0.292,0.156,0.095,�k�k��,2.4,��
2018/05/14,00:40,0.301,0.191,0.308,0.298,0.296,0.155,0.095,-,CALM,��
2018/05/14,00:50,0.302,0.192,0.307,0.295,0.292,0.155,0.096,�k,2.8,��
2018/05/14,01:00,0.302,0.190,0.308,0.296,0.297,0.155,0.095,�k,5.5,��
2018/05/14,01:10,0.303,0.191,0.308,0.294,0.293,0.155,0.094,�k,3.1,��
2018/05/14,01:20,0.301,0.191,0.308,0.296,0.295,0.155,0.096,�k�k��,1.5,��
2018/05/14,01:30,0.302,0.191,0.308,0.295,0.292,0.155,0.095,�k�k��,1.2,��
2018/05/14,01:40,0.301,0.191,0.308,0.296,0.295,0.155,0.095,��,1.3,��
2018/05/14,01:50,0.303,0.191,0.308,0.295,0.293,0.154,0.094,-,CALM,��
2018/05/14,02:00,0.302,0.191,0.307,0.294,0.294,0.155,0.095,-,CALM,��
2018/05/14,02:10,0.301,0.190,0.309,0.295,0.294,0.153,0.096,-,CALM,��
2018/05/14,02:20,0.301,0.191,0.307,0.294,0.294,0.155,0.095,-,CALM,��
2018/05/14,02:30,0.302,0.190,0.308,0.294,0.294,0.155,0.095,-,CALM,��
2018/05/14,02:40,0.302,0.191,0.307,0.294,0.294,0.154,0.094,-,CALM,��
2018/05/14,02:50,0.303,0.191,0.310,0.297,0.293,0.155,0.094,��,1.3,��
2018/05/14,03:00,0.300,0.190,0.307,0.294,0.294,0.154,0.095,�쐼,1.9,��
2018/05/14,03:10,0.303,0.191,0.311,0.297,0.294,0.155,0.095,��쐼,1.2,�L
2018/05/14,03:20,0.302,0.191,0.309,0.295,0.296,0.155,0.096,-,CALM,��
2018/05/14,03:30,0.303,0.193,0.309,0.298,0.296,0.156,0.096,-,CALM,��
2018/05/14,03:40,0.303,0.191,0.309,0.295,0.295,0.154,0.095,-,CALM,�L
2018/05/14,03:50,0.303,0.192,0.309,0.296,0.295,0.155,0.095,���쓌,0.8,��
2018/05/14,04:00,0.304,0.191,0.308,0.296,0.294,0.155,0.095,��,1.5,��
2018/05/14,04:10,0.302,0.192,0.307,0.297,0.295,0.156,0.095,��,2.2,��
2018/05/14,04:20,0.304,0.191,0.309,0.297,0.295,0.156,0.095,��,1.6,�L
2018/05/14,04:30,0.303,0.192,0.309,0.296,0.296,0.156,0.096,��쓌,0.7,��
2018/05/14,04:40,0.304,0.192,0.311,0.298,0.294,0.155,0.097,��,0.9,��
2018/05/14,04:50,0.302,0.191,0.309,0.296,0.297,0.156,0.095,��쓌,1.0,��
2018/05/14,05:00,0.304,0.194,0.310,0.297,0.294,0.156,0.096,��,1.8,��
2018/05/14,05:10,0.302,0.191,0.308,0.295,0.296,0.156,0.096,��,1.6,��
2018/05/14,05:20,0.303,0.192,0.310,0.298,0.294,0.156,0.096,��,1.1,��
2018/05/14,05:30,0.303,0.190,0.308,0.295,0.295,0.156,0.096,��,1.1,��
2018/05/14,05:40,0.305,0.192,0.310,0.296,0.292,0.156,0.096,���쐼,0.8,��
2018/05/14,05:50,0.301,0.192,0.310,0.296,0.296,0.155,0.096,-,CALM,��
2018/05/14,06:00,0.303,0.192,0.309,0.297,0.294,0.156,0.096,-,CALM,��
2018/05/14,06:10,0.303,0.193,0.311,0.295,0.296,0.156,0.096,-,CALM,�L
2018/05/14,06:20,0.304,0.191,0.308,0.297,0.293,0.156,0.096,-,CALM,��
2018/05/14,06:30,0.301,0.191,0.312,0.294,0.296,0.156,0.096,���k��,0.8,�L
2018/05/14,06:40,0.304,0.191,0.307,0.297,0.294,0.157,0.096,-,CALM,�L
2018/05/14,06:50,0.301,0.192,0.311,0.295,0.297,0.156,0.097,���쐼,1.2,��
2018/05/14,07:00,0.304,0.192,0.307,0.297,0.295,0.156,0.096,�쐼,2.2,��
2018/05/14,07:10,0.301,0.192,0.310,0.296,0.295,0.155,0.096,�쐼,1.6,��
2018/05/14,07:20,0.304,0.190,0.308,0.296,0.293,0.156,0.096,�쐼,1.6,�L
2018/05/14,07:30,0.301,0.192,0.311,0.295,0.295,0.156,0.095,��쐼,3.2,��
2018/05/14,07:40,0.304,0.192,0.308,0.296,0.295,0.156,0.095,��쐼,3.3,�L
2018/05/14,07:50,0.302,0.191,0.310,0.295,0.294,0.155,0.095,�쐼,3.1,�L
2018/05/14,08:00,0.302,0.190,0.308,0.297,0.295,0.155,0.096,�쐼,2.6,��
2018/05/14,08:10,0.301,0.193,0.311,0.296,0.294,0.157,0.097,��,2.7,�L
2018/05/14,08:20,0.305,0.193,0.309,0.298,0.297,0.157,0.098,��쓌,1.5,�L
2018/05/14,08:30,0.304,0.195,0.313,0.298,0.295,0.159,0.098,�쓌,1.0,�L
2018/05/14,08:40,0.306,0.193,0.311,0.299,0.298,0.158,0.097,�쐼,0.7,��
2018/05/14,08:50,0.304,0.193,0.311,0.297,0.296,0.157,0.097,-,CALM,�L
2018/05/14,09:00,0.305,0.193,0.309,0.299,0.297,0.156,0.098,��,2.9,�L
2018/05/14,09:10,0.303,0.194,0.312,0.297,0.295,0.157,0.097,���쐼,2.3,��
2018/05/14,09:20,0.304,0.192,0.309,0.296,0.297,0.157,0.097,��쐼,1.6,��
2018/05/14,09:30,0.302,0.193,0.310,0.294,0.294,0.157,0.096,��쐼,1.3,��
2018/05/14,09:40,0.304,0.191,0.309,0.297,0.294,0.155,0.096,-,CALM,��
2018/05/14,09:50,0.303,0.191,0.311,0.297,0.297,0.155,0.096,�쓌,1.1,��
2018/05/14,10:00,0.300,0.192,0.307,0.293,0.293,0.156,0.095,��,2.0,��
2018/05/14,10:10,0.303,0.189,0.307,0.292,0.291,0.155,0.095,�쓌,2.2,��
2018/05/14,10:20,0.301,0.191,0.309,0.295,0.292,0.155,0.095,-,-,��
2018/05/14,10:30,0.301,0.191,0.306,0.297,0.294,0.156,0.094,-,-,��
2018/05/14,10:40,0.304,0.190,0.306,0.294,0.293,0.156,0.094,-,-,��
2018/05/14,10:50,0.302,0.190,0.308,0.294,0.292,0.155,0.095,-,-,��
2018/05/14,11:00,0.302,0.189,0.309,0.292,0.291,0.154,0.095,-,-,��
2018/05/14,11:10,0.299,0.189,0.305,0.293,0.293,0.155,0.095,-,-,��
2018/05/14,11:20,0.300,0.190,0.305,0.292,0.295,0.155,0.094,-,-,��
2018/05/14,11:30,0.304,0.191,0.306,0.292,0.295,0.156,0.093,-,-,��
2018/05/14,11:40,0.306,0.190,0.311,0.299,0.293,0.155,0.094,-,-,��
2018/05/14,11:50,0.302,0.190,0.310,0.299,0.291,0.154,0.095,-,-,��
2018/05/14,12:00,0.301,0.190,0.308,0.297,0.293,0.155,0.095,-,-,��
2018/05/14,12:10,0.306,0.192,0.307,0.296,0.297,0.154,0.094,-,-,��
2018/05/14,12:20,0.305,0.191,0.307,0.295,0.294,0.155,0.094,-,-,��
2018/05/14,12:30,0.303,0.191,0.309,0.295,0.294,0.155,0.094,-,-,��
2018/05/14,12:40,0.302,0.190,0.310,0.295,0.293,0.156,0.094,-,-,��
2018/05/14,12:50,0.305,0.192,0.309,0.295,0.292,0.155,0.094,-,-,��
2018/05/14,13:00,0.306,0.191,0.309,0.296,0.294,0.155,0.093,-,-,��
2018/05/14,13:10,0.305,0.192,0.308,0.295,0.297,0.156,0.093,-,-,��
2018/05/14,13:20,0.303,0.190,0.308,0.295,0.297,0.156,0.095,-,-,��
2018/05/14,13:30,0.307,0.190,0.308,0.296,0.297,0.156,0.095,-,-,��
2018/05/14,13:40,0.308,0.191,0.308,0.296,0.294,0.156,0.096,-,-,��
2018/05/14,13:50,0.307,0.192,0.309,0.295,0.295,0.156,0.094,-,-,��
2018/05/14,14:00,0.305,0.193,0.307,0.296,0.294,0.156,0.094,-,-,��
2018/05/14,14:10,0.304,0.191,0.312,0.296,0.293,0.157,0.094,-,-,��
2018/05/14,14:20,0.303,0.190,0.313,0.298,0.295,0.157,0.093,-,-,��
2018/05/14,14:30,0.303,0.190,0.312,0.296,0.293,0.156,0.095,-,-,��
2018/05/14,14:40,0.307,0.191,0.310,0.295,0.294,0.157,0.094,-,-,��
2018/05/14,14:50,0.308,0.193,0.310,0.299,0.294,0.157,0.094,-,-,��
2018/05/14,15:00,0.307,0.194,0.310,0.301,0.294,0.157,0.095,-,-,��
2018/05/14,15:10,0.306,0.192,0.309,0.300,0.294,0.157,0.096,-,-,��
2018/05/14,15:20,0.305,0.192,0.316,0.297,0.298,0.156,0.095,-,-,��
2018/05/14,15:30,0.306,0.192,0.314,0.300,0.300,0.157,0.095,-,-,��
2018/05/14,15:40,0.310,0.194,0.312,0.301,0.298,0.157,0.095,-,-,��
2018/05/14,15:50,0.308,0.192,0.310,0.298,0.296,0.157,0.095,-,-,��
2018/05/14,16:00,0.306,0.192,0.315,0.302,0.295,0.157,0.095,�k,7.7,��
2018/05/14,16:10,0.305,0.194,0.313,0.299,0.295,0.157,0.095,�k�k��,9.2,��
2018/05/14,16:20,0.308,0.192,0.311,0.299,0.295,0.157,0.096,�k�k��,9.0,��
2018/05/14,16:30,0.310,0.194,0.316,0.302,0.293,0.157,0.096,�k�k��,10.1,��
2018/05/14,16:40,0.307,0.194,0.314,0.299,0.296,0.156,0.096,�k�k��,9.6,��
2018/05/14,16:50,0.306,0.193,0.313,0.298,0.299,0.158,0.096,�k,8.4,��
2018/05/14,17:00,0.309,0.195,0.314,0.301,0.297,0.158,0.095,�k�k��,6.6,��
2018/05/14,17:10,0.310,0.193,0.312,0.299,0.295,0.157,0.095,�k,7.4,��
2018/05/14,17:20,0.306,0.194,0.314,0.302,0.296,0.159,0.096,�k,7.0,��
2018/05/14,17:30,0.309,0.195,0.313,0.300,0.300,0.157,0.095,�k�k��,6.5,��
2018/05/14,17:40,0.311,0.193,0.312,0.301,0.297,0.157,0.096,�k�k��,5.5,��
2018/05/14,17:50,0.308,0.194,0.313,0.301,0.296,0.157,0.095,�k�k��,6.6,��
2018/05/14,18:00,0.309,0.192,0.312,0.299,0.299,0.157,0.096,�k�k��,6.0,��
2018/05/14,18:10,0.310,0.194,0.316,0.302,0.295,0.157,0.095,�k��,5.3,��
2018/05/14,18:20,0.308,0.193,0.313,0.299,0.299,0.157,0.096,���k��,6.5,��
2018/05/14,18:30,0.308,0.194,0.315,0.301,0.299,0.157,0.095,�k��,7.6,��
2018/05/14,18:40,0.309,0.192,0.315,0.301,0.298,0.157,0.095,�k��,7.4,��
2018/05/14,18:50,0.309,0.193,0.313,0.300,0.297,0.157,0.096,�k��,7.6,��
2018/05/14,19:00,0.309,0.193,0.315,0.302,0.297,0.157,0.096,�k��,7.6,��
2018/05/14,19:10,0.307,0.194,0.313,0.299,0.299,0.158,0.095,�k��,7.9,��
2018/05/14,19:20,0.309,0.193,0.315,0.301,0.298,0.158,0.096,�k�k��,9.3,��
2018/05/14,19:30,0.308,0.195,0.312,0.301,0.299,0.157,0.095,�k��,10.9,��
2018/05/14,19:40,0.311,0.194,0.314,0.300,0.297,0.157,0.095,�k��,9.5,��
2018/05/14,19:50,0.308,0.193,0.313,0.300,0.298,0.157,0.096,�k��,5.6,��
2018/05/14,20:00,0.310,0.193,0.315,0.301,0.297,0.158,0.096,�k��,4.4,��
2018/05/14,20:10,0.309,0.193,0.312,0.300,0.300,0.157,0.095,�k��,4.1,��
2018/05/14,20:20,0.312,0.193,0.316,0.302,0.298,0.157,0.096,�k�k��,2.3,��
2018/05/14,20:30,0.308,0.193,0.313,0.299,0.299,0.157,0.096,��,1.3,��
2018/05/14,20:40,0.310,0.193,0.316,0.302,0.297,0.158,0.095,�k��,0.6,��
2018/05/14,20:50,0.309,0.193,0.315,0.300,0.299,0.158,0.095,���k��,2.7,��
2018/05/14,21:00,0.310,0.193,0.315,0.301,0.299,0.157,0.096,���k��,5.6,��
2018/05/14,21:10,0.309,0.195,0.314,0.302,0.299,0.157,0.095,���k��,4.8,��
2018/05/14,21:20,0.310,0.193,0.314,0.301,0.299,0.156,0.096,�k��,2.0,��
2018/05/14,21:30,0.308,0.193,0.313,0.300,0.297,0.157,0.095,�k�k��,1.6,��
2018/05/14,21:40,0.309,0.194,0.313,0.302,0.298,0.158,0.095,�k�k��,1.0,��
2018/05/14,21:50,0.308,0.194,0.315,0.301,0.298,0.157,0.096,��,3.9,��
2018/05/14,22:00,0.311,0.192,0.315,0.299,0.299,0.157,0.096,���k��,3.3,��
2018/05/14,22:10,0.309,0.193,0.315,0.301,0.296,0.157,0.096,��,3.7,��
2018/05/14,22:20,0.309,0.194,0.314,0.300,0.299,0.156,0.096,���쐼,1.4,��
2018/05/14,22:30,0.309,0.193,0.314,0.301,0.297,0.158,0.095,���k��,0.6,��
2018/05/14,22:40,0.307,0.194,0.314,0.301,0.297,0.158,0.096,��,0.9,��
2018/05/14,22:50,0.310,0.194,0.315,0.301,0.296,0.157,0.096,���k��,2.5,��
2018/05/14,23:00,0.309,0.194,0.315,0.301,0.299,0.157,0.096,���k��,2.5,��
2018/05/14,23:10,0.309,0.194,0.314,0.300,0.298,0.157,0.095,�k��,1.8,��
2018/05/14,23:20,0.309,0.192,0.316,0.301,0.298,0.157,0.096,��,2.8,��
2018/05/14,23:30,0.309,0.194,0.315,0.300,0.299,0.158,0.096,���k��,3.1,��
2018/05/14,23:40,0.309,0.192,0.315,0.301,0.297,0.157,0.095,��,1.5,��
2018/05/14,23:50,0.308,0.192,0.315,0.302,0.299,0.157,0.096,���쐼,2.7,��
